Content
SEND FEEDBACK

Daily
Averages
Monthly
Summary
United States of America

LAKE PLACID, NEW YORK


Home > North America > United States > New York
Elevation: 1984 feet     Latitude: 44 15N     Longitude: 073 59W

WEATHER
 
SELECT A DAY
Number of Records: 224,890;   Date Range: 1/1/95 - 8/12/14
 
SHARE

PRINT THIS DATA

[ ← Previous Day ]
WEATHER ALMANAC - FEBRUARY 22, 2013
[ Next Day → ]
[ °C ]   °F
Weather ElementAverageHighLow
Temperature17.6 °F30 °F (10:51 pm)-2.2 °F (7:14 am)
Dewpoint11.8 °F19.9 °F (10:51 am)-5.8 °F (7:14 am)
Humidity79.4 %100 % (9:04 am)64 % (10:51 pm)
Barometer30.30 in30.43 in (6:51 am)30.13 in (11:51 pm)
Wind Speed3.5 mph10.4 mph (10:51 am)
Weather ElementAverage
Visibility9.7 mi
Wind DirectionNNE (37.7 °)

Weather ElementTotal
Precipitation---
Heating Degree Days51.1 (Base 65)
Averaged from 31 records on February 22, 2013
WEATHER CONDITIONS BREAKOUT
WIND DIRECTION BREAKOUT
WEATHER BY HOUR - FEBRUARY 22, 2013
[ °C ]   °F
Local TimeTemperatureDewpointHumidityBarometerVisibilityWind DirectionWind SpeedGust SpeedPrecipitationEventsConditions
1:51 AM14.0 °F10.9 °F88 %30.37 in10.0 miCalmOvercast
2:51 AM12.9 °F10.0 °F88 %30.37 in10.0 miCalmOvercast
3:19 AM12.2 °F10.4 °F92 %30.24 in10.0 miCalmOvercast
3:51 AM9.0 °F6.1 °F88 %30.34 in10.0 miCalmPartly Cloudy
4:51 AM3.0 °F1.0 °F91 %30.36 in10.0 miCalmClear
5:51 AM1.0 °F-2.0 °F87 %30.41 in10.0 miCalmClear
6:51 AM-2.0 °F-5.1 °F87 %30.43 in10.0 miCalmClear
7:14 AM-2.2 °F-5.8 °F85 %30.31 in10.0 miCalmScattered Clouds
7:22 AM-2.2 °F-5.8 °F85 %30.31 in10.0 miCalmMostly Cloudy
7:48 AM-0.4 °F-4.0 °F85 %30.31 in10.0 miCalmOvercast
7:51 AM0.0 °F-2.9 °F88 %30.43 in10.0 miCalmOvercast
8:51 AM9.0 °F8.1 °F96 %30.42 in10.0 miCalmOvercast
9:04 AM10.4 °F10.4 °F100 %30.31 in10.0 miCalmOvercast
9:51 AM19.0 °F17.1 °F92 %30.39 in4.0 miCalmMostly Cloudy
9:58 AM21.2 °F17.6 °F86 %30.29 in7.0 miCalmScattered Clouds
10:51 AM26.1 °F19.9 °F78 %30.36 in10.0 miEast (80°)10.4 mphClear
11:19 AM26.6 °F19.4 °F74 %30.27 in10.0 miENE (60°)8.1 mphMostly Cloudy
11:51 AM28.0 °F19.0 °F69 %30.35 in10.0 miENE (60°)9.2 mphOvercast
12:51 PM28.0 °F19.0 °F69 %30.31 in10.0 miENE (70°)8.1 mphMostly Cloudy
1:47 PM28.4 °F19.4 °F69 %30.20 in10.0 miENE (60°)9.2 mphPartly Cloudy
1:51 PM28.9 °F19.0 °F67 %30.28 in10.0 miENE (70°)8.1 mphPartly Cloudy
2:51 PM28.9 °F19.0 °F67 %30.27 in10.0 miENE (60°)6.9 mphClear
3:51 PM28.9 °F19.9 °F69 %30.25 in10.0 miENE (60°)8.1 mphClear
4:51 PM28.0 °F19.0 °F69 %30.24 in10.0 miENE (60°)6.9 mphPartly Cloudy
5:51 PM26.1 °F18.0 °F71 %30.24 in10.0 miENE (60°)8.1 mphClear
6:51 PM26.1 °F18.0 °F71 %30.25 in10.0 miEast (80°)4.6 mphPartly Cloudy
7:51 PM26.1 °F18.0 °F71 %30.22 in10.0 miENE (60°)3.5 mphOvercast
8:51 PM25.0 °F18.0 °F75 %30.20 in10.0 miENE (60°)3.5 mphOvercast
9:51 PM24.1 °F17.1 °F75 %30.18 in10.0 miCalmOvercast
10:51 PM30.0 °F19.0 °F64 %30.16 in9.0 miSSE (160°)4.6 mph0.00 inSnowLight Snow
11:51 PM30.0 °F19.0 °F64 %30.13 in10.0 miSouth (170°)10.4 mph0.00 inOvercast
Hourly data recorded from KSLK, located miles away from Lake Placid, New York







STORIES FROM OUR PARTNERS